Latest Weather Observations for Bridgetown

IDW60801

Issued at 10:05 am WST Tuesday 23 September 2014 (issued every 30 minutes, with the page automatically refreshed every 10 minutes)

About weather observations | Map of weather stations | Latest weather observations for WA | Other Formats
Station Details ID: 009617 Name: BRIDGETOWN Lat: -33.95 Lon: 116.13 Height: 178.66 m
Data from the previous 72 hours. | See also: Recent months at Bridgetown
Date/Time
WST
Temp
°C
App
Temp
°C
Dew
Point
Rel
Hum
%
Delta-T
°C
Wind Press
QNH
hPa
Press
MSL
hPa
Rain
since 9 am
mm
Dir
 
Spd
km/h
Gust
km/h
Spd
kts
Gust
kts
23/10:00am 12.9 11.2 8.2 73 2.3 W 7 13 4 7 1026.2 1026.3 0.0
23/09:30am 12.6 11.4 9.4 81 1.6 NW 6 11 3 6 1026.1 1026.2 0.0
23/09:00am 12.2 11.4 9.6 84 1.3 NW 4 9 2 5 1026.4 1026.5 0.4
23/08:30am 11.4 10.5 9.3 87 1.1 NNW 4 7 2 4 1026.3 1026.4 0.4
23/08:00am 10.7 10.8 10.2 97 0.3 CALM 0 0 0 0 1026.1 1026.2 0.4
23/07:30am 9.6 9.5 9.6 100 0.0 CALM 0 0 0 0 1026.0 1026.1 0.4
23/07:00am 9.2 9.0 9.2 100 0.0 CALM 0 2 0 1 1025.9 1026.0 0.4
23/06:30am 9.1 8.9 9.1 100 0.0 CALM 0 0 0 0 1025.8 1025.9 0.4
23/06:00am 8.9 8.7 8.9 100 0.0 SSW 0 0 0 0 1025.6 1025.7 0.4
23/05:30am 8.8 8.5 8.8 100 0.0 CALM 0 0 0 0 1025.3 1025.4 0.4
23/05:00am 8.7 8.4 8.7 100 0.0 CALM 0 0 0 0 1024.9 1025.0 0.4
23/04:30am 8.5 8.2 8.5 100 0.0 CALM 0 0 0 0 1024.8 1024.9 0.4
23/04:00am 8.4 8.0 8.4 100 0.0 CALM 0 0 0 0 1024.8 1024.9 0.4
23/03:30am 8.3 7.9 8.3 100 0.0 CALM 0 0 0 0 1024.5 1024.6 0.4
23/03:00am 8.2 7.8 8.2 100 0.0 CALM 0 0 0 0 1024.7 1024.8 0.4
23/02:30am 8.0 7.5 8.0 100 0.0 CALM 0 0 0 0 1024.8 1024.9 0.4
23/02:00am 7.9 7.4 7.9 100 0.0 CALM 0 0 0 0 1025.0 1025.1 0.4
23/01:30am 7.9 7.4 7.9 100 0.0 CALM 0 0 0 0 1025.2 1025.3 0.4
23/01:00am 7.7 7.2 7.7 100 0.0 CALM 0 0 0 0 1025.3 1025.4 0.4
23/12:30am 7.6 6.7 7.6 100 0.0 NW 2 6 1 3 1025.4 1025.5 0.4
23/12:00am 7.1 6.4 7.1 100 0.0 NNW 0 0 0 0 1025.4 1025.5 0.4
 
Date/Time
WST
Temp
°C
App
Temp
°C
Dew
Point
Rel
Hum
%
Delta-T
°C
Wind Press
QNH
hPa
Press
MSL
hPa
Rain
since 9 am
mm
Dir
 
Spd
km/h
Gust
km/h
Spd
kts
Gust
kts
22/11:30pm 6.9 5.4 6.9 100 0.0 NNW 4 6 2 3 1025.4 1025.5 0.4
22/11:00pm 6.0 4.7 6.0 100 0.0 N 2 4 1 2 1025.6 1025.7 0.4
22/10:30pm 6.2 5.3 6.2 100 0.0 CALM 0 0 0 0 1025.9 1026.0 0.4
22/10:00pm 6.8 5.7 6.8 100 0.0 NNE 2 4 1 2 1026.0 1026.1 0.4
22/09:30pm 6.9 5.4 6.9 100 0.0 N 4 7 2 4 1026.0 1026.1 0.4
22/09:00pm 6.0 4.3 5.9 99 0.0 N 4 6 2 3 1025.9 1026.0 0.4
22/08:30pm 6.2 5.3 6.1 99 0.0 CALM 0 0 0 0 1025.9 1026.0 0.4
22/08:00pm 6.8 6.0 6.7 99 0.0 CALM 0 0 0 0 1025.6 1025.7 0.4
22/07:30pm 7.3 6.6 7.0 98 0.1 CALM 0 0 0 0 1025.4 1025.5 0.4
22/07:00pm 8.2 7.5 7.0 92 0.6 CALM 0 0 0 0 1025.0 1025.1 0.4
22/06:30pm 9.6 8.4 6.3 80 1.5 SW 2 6 1 3 1024.5 1024.6 0.4
22/06:00pm 11.0 8.7 5.7 70 2.5 S 7 13 4 7 1024.2 1024.3 0.4
22/05:30pm 11.6 9.3 5.5 66 2.8 S 7 15 4 8 1024.0 1024.1 0.4
22/05:00pm 12.1 8.9 5.3 63 3.2 SSW 11 20 6 11 1023.7 1023.8 0.4
22/04:30pm 13.9 11.1 7.0 63 3.4 SSW 11 19 6 10 1023.1 1023.2 0.4
22/04:00pm 13.8 10.6 6.9 63 3.4 SSW 13 28 7 15 1022.8 1022.9 0.4
22/03:30pm 12.9 9.9 6.0 63 3.3 S 11 20 6 11 1022.5 1022.6 0.4
22/03:00pm 14.4 11.1 6.5 59 3.8 SSW 13 26 7 14 1022.2 1022.2 0.4
22/02:30pm 14.1 10.4 6.2 59 3.8 S 15 24 8 13 1022.0 1022.0 0.4
22/02:00pm 13.6 9.2 6.7 63 3.3 S 19 33 10 18 1022.2 1022.2 0.4
22/01:30pm 13.5 10.4 7.3 66 3.1 S 13 24 7 13 1022.2 1022.2 0.4
22/01:00pm 11.5 8.6 6.6 72 2.3 S 11 24 6 13 1022.3 1022.4 0.4
22/12:30pm 14.2 11.2 6.1 58 3.9 SSW 11 32 6 17 1022.1 1022.1 0.2
22/12:00pm 13.2 10.5 7.2 67 2.9 SSE 11 22 6 12 1022.1 1022.1 0.2
22/11:30am 12.4 10.0 8.7 78 1.9 S 11 17 6 9 1022.4 1022.5 0.2
22/11:00am 11.2 9.2 10.0 92 0.6 SW 11 22 6 12 1022.6 1022.7 0.2
22/10:30am 12.5 9.6 6.5 67 2.9 SSE 11 19 6 10 1022.0 1022.0 0.0
22/10:00am 12.4 9.4 7.7 73 2.3 SSE 13 22 7 12 1022.2 1022.2 0.0
22/09:30am 11.4 8.8 7.9 79 1.7 S 11 17 6 9 1022.0 1022.0 0.0
22/09:00am 10.7 9.7 10.2 97 0.3 S 6 13 3 7 1021.9 1021.9 13.6
22/08:30am 9.1 7.7 9.0 99 0.0 S 6 9 3 5 1021.9 1021.9 13.6
22/08:00am 8.8 7.4 8.7 99 0.0 S 6 9 3 5 1021.5 1021.5 13.4
22/07:30am 7.9 6.3 7.8 99 0.0 S 6 11 3 6 1021.1 1021.1 13.4
22/07:00am 7.5 6.9 7.5 100 0.0 CALM 0 0 0 0 1020.4 1020.5 13.4
22/06:30am 6.2 5.3 6.1 99 0.0 CALM 0 0 0 0 1019.5 1019.6 13.4
22/06:00am 7.4 6.0 7.3 99 0.0 SSE 4 7 2 4 1019.1 1019.2 13.4
22/05:30am 7.5 6.5 7.4 99 0.0 WSW 2 7 1 4 1018.6 1018.7 12.8
22/05:00am 7.3 4.9 7.2 99 0.0 SSW 9 19 5 10 1018.4 1018.5 12.4
22/04:30am 5.9 4.6 5.9 100 0.0 SSW 2 6 1 3 1017.8 1017.9 10.8
22/04:00am 5.2 4.1 5.2 100 0.0 CALM 0 4 0 2 1017.2 1017.2 10.8
22/03:30am 5.4 4.4 5.4 100 0.0 CALM 0 0 0 0 1016.5 1016.5 10.8
22/03:00am 5.8 4.8 5.7 99 0.0 CALM 0 0 0 0 1016.1 1016.1 10.8
22/02:30am 7.1 6.4 7.0 99 0.0 CALM 0 0 0 0 1015.9 1015.9 10.8
22/02:00am 7.8 6.1 7.7 99 0.0 S 6 11 3 6 1016.0 1016.0 10.8
22/01:30am 7.3 6.7 7.2 99 0.0 CALM 0 0 0 0 1016.0 1016.0 10.8
22/01:00am 8.5 8.1 8.4 99 0.0 CALM 0 4 0 2 1015.7 1015.7 10.8
22/12:30am 9.6 8.1 9.3 98 0.1 S 7 11 4 6 1015.7 1015.7 10.8
22/12:00am 9.2 8.3 9.1 99 0.0 S 4 6 2 3 1015.5 1015.5 10.6
 
Date/Time
WST
Temp
°C
App
Temp
°C
Dew
Point
Rel
Hum
%
Delta-T
°C
Wind Press
QNH
hPa
Press
MSL
hPa
Rain
since 9 am
mm
Dir
 
Spd
km/h
Gust
km/h
Spd
kts
Gust
kts
21/11:30pm 9.4 8.5 9.3 99 0.0 SSE 4 7 2 4 1015.1 1015.1 10.6
21/11:00pm 9.6 9.1 9.3 98 0.1 SW 2 7 1 4 1015.0 1015.0 10.6
21/10:30pm 9.7 8.8 9.4 98 0.2 SSW 4 7 2 4 1014.8 1014.8 10.6
21/10:00pm 9.9 8.7 9.6 98 0.2 SSW 6 7 3 4 1014.3 1014.4 10.6
21/09:30pm 10.1 9.4 10.0 99 0.1 S 4 7 2 4 1014.3 1014.4 10.6
21/09:00pm 10.3 10.0 10.1 99 0.1 SSW 2 7 1 4 1014.3 1014.4 10.6
21/08:30pm 10.5 9.5 10.3 99 0.1 SSW 6 11 3 6 1013.7 1013.8 10.6
21/08:00pm 10.5 9.3 10.3 99 0.1 S 7 15 4 8 1012.8 1012.9 10.6
21/07:30pm 10.8 9.3 10.5 98 0.2 S 9 17 5 9 1012.4 1012.4 10.6
21/07:00pm 10.9 9.4 10.7 99 0.1 S 9 15 5 8 1011.6 1011.6 10.6
21/06:30pm 10.9 9.1 10.7 99 0.1 S 11 17 6 9 1011.2 1011.2 10.6
21/06:00pm 11.0 9.6 10.8 99 0.1 SSW 9 15 5 8 1010.6 1010.6 10.4
21/05:30pm 11.3 9.6 11.1 99 0.1 S 11 24 6 13 1009.6 1009.6 10.2
21/05:00pm 11.9 11.1 11.6 98 0.2 S 7 20 4 11 1008.8 1008.9 10.0
21/04:30pm 11.9 9.6 11.6 98 0.2 S 15 24 8 13 1007.8 1007.8 10.0
21/04:00pm 12.0 9.7 11.8 99 0.1 SSW 15 26 8 14 1007.8 1007.8 10.0
21/03:30pm 12.6 11.3 12.4 99 0.1 SW 11 20 6 11 1006.7 1006.7 10.0
21/03:00pm 12.8 12.9 12.6 99 0.1 WNW 4 9 2 5 1005.7 1005.7 9.6
21/02:30pm 13.2 13.0 13.0 99 0.1 WNW 6 11 3 6 1005.3 1005.3 9.2
21/02:00pm 12.9 13.7 12.7 99 0.1 CALM 0 0 0 0 1005.4 1005.4 9.0
21/01:30pm 12.7 11.8 12.5 99 0.1 N 9 15 5 8 1005.6 1005.6 8.0
21/01:00pm 12.9 12.0 12.7 99 0.1 N 9 19 5 10 1005.2 1005.2 7.0
21/12:30pm 12.9 12.4 12.7 99 0.1 NNW 7 13 4 7 1005.6 1005.6 5.8
21/12:00pm 13.4 13.3 13.2 99 0.1 NNW 6 7 3 4 1005.2 1005.2 4.0
21/11:30am 13.6 13.5 13.4 99 0.1 W 6 13 3 7 1005.3 1005.3 3.0
21/11:00am 13.9 13.3 13.6 98 0.2 W 9 24 5 13 1004.2 1004.2 1.6
21/10:30am 14.3 14.2 14.0 98 0.2 W 7 19 4 10 1003.9 1003.9 1.2
21/10:00am 14.5 14.5 14.2 98 0.2 W 7 19 4 10 1003.2 1003.1 1.2
21/09:35am 17.7 13.8 14.4 81 1.9 NNW 28 54 15 29 1002.8 1002.8 0.8
21/09:30am 19.4 16.3 13.3 68 3.5 N 22 41 12 22 1001.7 1001.7 0.0
21/09:00am 19.4 15.4 13.1 67 3.6 N 26 43 14 23 1001.5 1001.5 0.0
21/08:35am 19.3 14.6 13.3 68 3.4 N 30 48 16 26 1001.6 1001.6 0.0
21/08:30am 19.3 15.2 13.7 70 3.2 N 28 39 15 21 1001.5 1001.5 0.0
21/08:00am 18.6 15.5 14.5 77 2.4 N 24 44 13 24 1001.6 1001.6 0.0
21/07:30am 18.2 17.2 14.5 79 2.2 N 13 24 7 13 1002.3 1002.3 0.0
21/07:00am 17.6 16.6 14.5 82 1.8 N 13 20 7 11 1002.5 1002.5 0.0
21/06:30am 16.9 16.1 14.0 83 1.7 N 11 22 6 12 1002.7 1002.7 0.0
21/06:00am 16.9 15.6 13.8 82 1.8 N 13 22 7 12 1002.8 1002.8 0.0
21/05:30am 17.1 16.0 14.2 83 1.7 N 13 20 7 11 1003.4 1003.4 0.0
21/05:00am 17.4 15.2 14.9 85 1.5 N 20 32 11 17 1003.5 1003.5 0.0
21/04:30am 17.1 15.5 15.1 88 1.2 N 17 24 9 13 1003.8 1003.8 0.0
21/04:00am 16.4 15.0 14.6 89 1.0 N 15 24 8 13 1003.7 1003.7 0.0
21/03:30am 16.2 15.1 14.4 89 1.0 N 13 24 7 13 1004.4 1004.4 0.0
21/03:00am 16.4 15.3 14.2 87 1.3 N 13 20 7 11 1004.6 1004.6 0.0
21/02:30am 15.9 16.1 14.8 93 0.6 NNW 7 9 4 5 1005.1 1005.1 0.0
21/02:00am 16.4 16.0 15.1 92 0.8 N 11 17 6 9 1005.8 1005.8 0.0
21/01:30am 16.8 16.0 16.2 96 0.4 N 15 22 8 12 1006.3 1006.3 0.0
21/01:00am 17.0 16.0 16.5 97 0.3 N 17 26 9 14 1007.0 1007.0 0.0
21/12:30am 17.3 16.2 16.3 94 0.6 N 17 32 9 17 1007.7 1007.7 0.0
21/12:00am 17.7 15.7 15.5 87 1.3 N 20 35 11 19 1007.9 1007.9 0.0
 
Date/Time
WST
Temp
°C
App
Temp
°C
Dew
Point
Rel
Hum
%
Delta-T
°C
Wind Press
QNH
hPa
Press
MSL
hPa
Rain
since 9 am
mm
Dir
 
Spd
km/h
Gust
km/h
Spd
kts
Gust
kts
20/11:30pm 17.9 16.3 15.9 88 1.2 NNW 19 28 10 15 1008.4 1008.5 0.0
20/11:00pm 18.1 15.4 15.7 86 1.4 N 24 50 13 27 1009.1 1009.1 0.0
20/10:30pm 18.0 17.5 17.0 94 0.6 N 15 28 8 15 1009.4 1009.4 0.0
20/10:00pm 16.9 17.8 16.6 98 0.2 N 7 22 4 12 1009.9 1009.9 0.0
20/09:30pm 16.6 17.1 15.6 94 0.6 NNW 7 11 4 6 1010.3 1010.3 0.0
20/09:00pm 16.8 17.1 15.0 89 1.1 N 7 11 4 6 1010.5 1010.5 0.0
20/08:30pm 18.1 17.5 13.6 75 2.6 NNW 9 19 5 10 1010.5 1010.5 0.0
20/08:00pm 19.2 16.6 12.0 63 4.0 NNW 17 30 9 16 1010.6 1010.6 0.0
20/07:30pm 20.3 17.7 9.2 49 5.9 NNW 13 26 7 14 1010.1 1010.1 0.0
20/07:00pm 19.0 18.9 10.8 59 4.5 NW 2 6 1 3 1009.3 1009.3 0.0
20/06:30pm 21.7 20.0 11.1 51 5.9 NNW 11 20 6 11 1008.8 1008.9 0.0
20/06:00pm 23.2 22.3 9.2 41 7.6 NNW 4 7 2 4 1008.2 1008.3 0.0
20/05:30pm 25.5 23.4 8.1 33 9.4 N 9 15 5 8 1008.3 1008.4 0.0
20/05:00pm 27.2 23.3 7.1 28 10.8 N 17 26 9 14 1008.5 1008.6 0.0
20/04:30pm 27.6 23.3 6.9 27 11.1 N 19 37 10 20 1008.5 1008.6 0.0
20/04:00pm 27.5 24.3 9.8 33 9.9 N 17 26 9 14 1008.7 1008.8 0.0
20/03:30pm 27.8 23.7 8.6 30 10.6 N 20 35 11 19 1008.8 1008.9 0.0
20/03:00pm 27.3 23.3 9.2 32 10.1 N 20 35 11 19 1009.3 1009.3 0.0
20/02:30pm 27.2 23.6 10.0 34 9.7 N 19 33 10 18 1009.7 1009.7 0.0
20/02:00pm 27.2 25.6 12.8 41 8.5 N 13 24 7 13 1010.4 1010.4 0.0
20/01:30pm 26.5 24.3 13.3 44 7.8 N 17 26 9 14 1010.9 1010.9 0.0
20/01:00pm 25.8 22.7 11.6 41 8.1 N 19 28 10 15 1011.3 1011.3 0.0
20/12:30pm 25.5 24.1 13.4 47 7.1 N 13 19 7 10 1011.9 1011.9 0.0
20/12:00pm 24.8 22.7 12.4 46 7.2 N 15 28 8 15 1012.6 1012.6 0.0
20/11:30am 23.8 21.3 12.4 48 6.6 NNE 17 28 9 15 1013.0 1013.1 0.0
20/11:00am 22.9 21.0 13.1 54 5.7 N 15 26 8 14 1013.4 1013.5 0.0
20/10:30am 21.9 20.8 13.0 57 5.1 NNE 11 19 6 10 1013.8 1013.9 0.0

Other Formats:

Comma delimited format used in spreadsheet applications
http://www.bom.gov.au/fwo/IDW60801/IDW60801.95632.axf

JavaScript Object Notation format (JSON) in row-major order
http://www.bom.gov.au/fwo/IDW60801/IDW60801.95632.json